Vorticity
2 1 1 1 1 3 3 4 4 3 3 3 3 2 1 1 2 4 4 3 5 9 10 8 8 6 5 5 6 8 8 7 5 4 5 4 4 3 3 4 4 4 4 3 4 6 6 6 6 6 6 7 7 6 6 6 5 5 5 5 5 6 7 8 10 12 13 11 10 8 7 5 4 3 3 1 1 2 1 2 1 2 3 2 2 3 4 5
4 3 2 2 2 2 2 3 4 4 4 4 4 3 2 1 1 3 4 4 3 5 10 10 8 6 5 5 5 7 7 6 4 3 5 6 5 5 4 4 4 4 4 4 6 6 5 5 6 7 7 7 7 7 7 6 6 6 5 6 8 9 10 12 13 14 12 8 7 5 4 3 2 1 1 0 1 1 0 2 3 4 5 4 4 4 4 6
5 4 3 2 3 2 2 2 3 3 4 4 4 5 3 1 0 1 2 4 4 4 7 10 9 8 6 5 5 6 7 5 4 2 3 5 6 6 4 4 4 5 6 6 5 4 3 5 6 7 8 8 8 8 8 8 8 9 10 11 12 13 14 14 12 10 8 5 4 3 3 2 1 0 0 1 1 -0 2 7 7 5 5 4 4 5 6 7
5 4 4 3 3 3 3 2 3 3 3 4 4 4 5 3 1 0 2 2 3 4 6 9 9 8 8 5 5 6 7 6 4 1 2 4 5 5 4 3 5 6 6 5 4 2 3 5 6 6 7 9 10 10 11 12 13 14 16 15 15 14 12 10 8 5 4 3 2 2 1 0 1 1 1 2 3 5 8 9 6 5 5 5 6 7 7 6
6 5 4 4 3 3 4 4 4 3 3 4 3 4 4 4 4 1 1 1 1 2 5 8 7 8 9 6 5 6 7 7 5 2 1 2 4 4 4 2 3 6 6 5 2 2 4 6 6 6 9 11 11 12 12 13 15 15 14 13 12 10 6 6 5 3 2 2 2 2 1 1 3 4 5 5 7 9 7 5 5 6 6 7 7 6 5 6
5 5 5 5 5 4 4 5 5 4 3 3 3 3 3 3 6 4 2 1 1 0 2 7 8 6 9 8 4 5 7 6 6 4 2 1 3 3 3 2 2 5 6 5 2 3 6 6 7 9 11 11 11 11 11 12 12 11 10 8 8 7 4 3 3 3 3 2 2 3 4 5 6 6 6 6 6 6 5 5 7 6 5 6 6 5 6 8
7 6 6 5 6 6 5 5 6 6 4 4 4 4 4 3 6 7 3 1 2 1 -1 6 12 7 7 10 5 4 5 5 6 5 3 2 3 2 2 2 2 4 7 5 2 3 6 7 9 10 11 11 10 10 10 10 9 7 7 6 5 5 3 2 3 4 4 4 4 5 7 7 5 4 5 5 5 5 6 7 7 6 6 5 6 7 8 8
8 7 7 6 6 6 5 5 5 6 6 5 4 4 5 4 5 8 4 1 2 3 0 5 15 10 6 10 7 4 5 6 6 4 4 3 3 3 3 3 2 4 7 4 2 4 7 8 9 10 10 10 9 9 9 8 8 6 6 6 4 4 4 3 5 5 5 5 6 6 6 5 4 4 5 5 4 5 6 6 6 7 7 6 7 8 8 7
8 7 7 7 6 6 6 6 4 3 5 5 6 4 5 5 5 8 6 2 1 4 3 4 13 11 6 9 8 5 5 6 6 3 4 4 3 3 3 4 3 4 6 3 3 5 7 9 9 9 10 10 9 10 9 7 8 7 6 6 5 5 4 5 5 5 6 6 6 6 6 5 5 5 5 5 5 6 7 6 6 6 7 8 7 6 6 4
8 7 6 6 5 6 6 7 7 5 5 5 7 6 7 8 7 10 8 2 2 3 3 3 10 10 5 8 8 6 5 6 7 4 3 4 3 2 3 4 4 4 5 3 4 5 7 8 8 9 10 11 10 9 9 7 7 6 6 5 5 5 5 5 6 5 5 5 5 5 7 7 5 5 4 5 6 6 7 7 6 7 7 6 5 4 4 4
9 8 7 7 6 6 7 7 9 9 9 8 9 8 9 9 10 14 10 3 4 3 2 3 7 10 6 7 9 7 5 6 7 6 4 4 3 2 1 4 4 3 4 4 4 5 6 8 7 9 10 10 9 9 8 7 7 6 5 5 5 5 5 5 4 5 4 4 4 4 7 9 7 6 6 5 6 7 8 7 6 7 6 4 4 4 5 7
12 11 10 9 8 8 9 9 9 10 10 11 11 11 10 10 12 15 10 5 5 3 2 4 5 10 8 6 9 7 6 6 5 6 6 5 4 2 1 3 4 4 4 3 3 5 6 7 7 8 8 7 8 8 7 6 6 6 6 5 5 5 5 5 4 5 5 4 5 4 5 9 8 6 7 7 8 9 8 6 6 5 4 4 5 7 8 9
11 11 10 8 8 8 10 12 13 13 14 14 13 12 12 11 13 14 11 7 5 2 4 6 6 9 7 6 8 6 5 5 6 6 7 7 5 3 2 2 4 5 5 4 4 6 7 6 7 6 6 6 6 6 5 6 6 6 6 5 5 5 4 5 4 4 5 6 6 5 4 7 7 6 7 9 10 8 5 5 4 3 4 7 9 10 9 8
10 9 8 6 6 9 15 19 20 21 19 18 14 11 11 12 13 13 12 9 8 9 12 13 11 10 6 5 8 7 5 5 5 6 6 7 6 4 3 3 5 6 5 5 5 6 6 5 6 5 6 6 5 5 5 6 6 5 4 4 5 5 4 4 5 5 5 5 6 6 6 7 9 8 7 8 7 4 2 3 2 3 7 9 10 10 8 8
9 9 7 5 5 11 18 19 20 21 17 14 11 8 10 12 12 11 11 14 18 21 20 18 16 10 5 5 7 6 6 5 4 6 6 7 6 4 4 4 5 6 6 5 5 5 5 4 5 5 5 5 5 5 5 4 4 4 4 4 3 4 4 4 5 5 5 5 6 7 7 9 9 7 8 7 5 3 2 2 4 7 9 9 9 8 7 8
8 9 8 7 6 10 15 15 14 14 11 8 7 7 10 10 8 8 13 20 25 25 21 17 14 9 5 6 8 6 5 6 5 5 7 6 6 5 4 4 5 6 5 5 4 4 4 4 4 4 4 5 4 4 4 3 4 3 2 4 4 4 5 4 4 5 5 5 6 7 9 10 7 4 6 6 4 3 2 4 7 9 10 10 9 7 8 8
7 7 8 8 6 7 12 13 11 9 8 6 5 6 7 6 7 11 18 21 20 18 16 14 11 7 6 6 8 7 5 5 5 6 7 6 6 5 5 5 6 5 4 4 4 4 4 4 4 4 4 4 4 3 3 4 4 3 2 3 4 4 5 5 4 5 6 6 7 7 8 9 6 4 5 4 2 2 4 7 9 10 10 9 8 8 9 7
6 6 7 7 6 5 7 11 12 8 6 5 4 5 5 7 10 15 17 14 13 13 10 8 7 7 7 7 7 7 6 5 6 6 7 7 6 6 5 5 5 5 5 5 5 4 4 4 3 3 3 2 3 3 3 3 4 4 4 4 4 5 5 6 5 5 5 5 7 8 7 7 4 3 4 3 2 4 7 9 10 10 9 8 8 9 8 8
8 8 9 8 6 6 5 8 12 10 7 5 4 4 5 10 14 13 9 6 8 9 4 2 5 5 7 8 7 7 7 6 6 7 7 7 6 5 5 5 6 6 6 5 4 4 3 3 2 2 2 3 3 4 4 4 4 4 5 5 5 5 5 6 6 6 6 5 6 7 7 7 3 2 3 3 4 6 10 12 11 9 7 7 8 8 8 10
13 12 13 12 9 8 5 5 9 11 10 6 5 4 4 12 16 11 6 5 5 4 1 3 6 6 6 7 7 7 6 6 7 6 7 6 5 5 5 6 6 6 6 5 4 4 3 2 2 2 2 4 4 4 4 4 5 5 5 5 6 5 5 6 6 7 7 6 5 5 6 6 4 3 2 3 6 10 13 13 8 6 6 8 8 8 11 12
14 13 14 14 11 11 8 6 6 10 13 8 6 6 5 13 16 9 5 5 4 2 2 4 6 7 6 6 6 7 6 6 6 6 7 7 6 6 6 6 6 6 5 4 3 2 3 4 3 3 3 4 5 4 4 4 4 5 5 5 6 6 5 6 6 6 7 6 6 5 4 5 4 3 3 6 10 11 12 9 5 6 7 8 10 11 13 12
11 12 15 15 13 12 11 9 5 8 15 11 8 7 7 13 15 8 6 6 5 3 3 5 7 6 6 7 7 7 6 6 6 6 7 7 7 6 6 6 6 6 5 4 4 3 4 4 3 4 4 5 5 4 4 4 4 5 6 6 6 7 7 6 6 5 6 6 6 5 3 4 5 4 5 10 11 10 10 7 5 7 8 11 13 12 11 10
10 11 13 15 15 13 12 12 8 7 15 14 8 6 9 15 14 6 6 8 7 5 3 6 8 8 8 9 9 7 6 5 5 5 6 5 6 6 5 6 5 5 5 4 5 4 4 4 3 5 5 5 5 4 5 4 5 6 6 8 7 8 7 7 7 5 6 6 5 5 3 3 5 6 8 10 9 9 10 7 6 9 12 14 12 10 9 10
10 10 11 13 15 15 13 13 12 8 14 15 5 3 10 16 14 5 3 8 8 6 5 6 8 9 9 7 5 5 4 5 5 4 6 6 5 5 5 6 5 5 5 4 4 3 3 4 5 5 5 5 4 4 5 5 5 6 7 8 7 7 7 7 7 5 5 5 4 3 2 5 10 10 10 11 10 10 9 7 9 14 15 13 9 9 10 12
10 11 13 14 14 16 15 15 16 13 13 13 5 2 8 14 13 5 2 8 8 6 7 7 8 7 6 5 4 4 4 4 5 4 5 5 4 5 6 5 5 4 3 3 3 3 4 5 5 5 4 4 4 3 5 6 6 6 7 7 6 7 7 6 6 5 5 3 2 3 4 11 16 11 11 13 10 10 10 10 14 15 13 10 9 10 11 14
18 21 21 19 17 16 16 16 19 16 12 12 10 5 7 12 13 6 3 7 7 6 7 7 8 6 4 5 5 6 6 4 5 5 5 5 4 5 5 4 3 3 3 3 4 4 5 5 4 4 3 3 3 4 6 7 7 7 6 6 6 6 5 4 5 4 3 2 3 7 9 13 13 6 7 10 8 9 12 15 16 12 9 10 11 11 13 15
23 30 28 22 19 18 20 22 23 17 9 15 21 10 5 11 11 8 8 8 7 6 6 6 7 7 5 6 5 4 3 3 3 3 4 2 2 3 3 3 4 3 4 4 4 5 5 4 4 3 3 2 4 5 7 7 6 6 6 6 5 4 4 4 4 3 4 4 6 9 10 13 13 8 7 9 10 14 16 16 13 9 10 12 11 12 13 14
13 25 26 22 23 21 20 22 24 18 8 15 25 12 5 11 11 11 10 6 5 4 2 3 4 6 7 6 6 5 3 3 2 3 5 3 2 3 3 4 3 3 4 4 4 5 4 4 3 3 2 3 5 7 7 6 5 6 5 4 3 3 4 4 4 5 6 8 9 10 11 10 11 11 10 10 12 16 16 12 9 10 13 12 10 11 11 8
12 24 26 24 22 17 17 19 21 20 13 15 22 13 6 11 15 17 10 3 6 6 4 5 6 6 7 7 8 6 5 5 5 6 6 4 3 4 3 2 1 1 4 4 4 4 4 4 3 2 2 5 7 6 6 5 5 5 4 3 4 4 5 6 7 8 8 9 9 10 11 8 10 12 9 10 15 15 12 10 10 12 11 9 10 11 8 4
21 23 26 22 9 6 16 17 12 17 18 15 15 13 14 19 22 21 13 8 10 10 9 10 9 10 9 9 8 5 4 4 4 3 1 2 3 3 2 -1 -0 2 3 4 4 5 4 4 2 2 5 6 6 5 6 5 4 4 3 5 6 6 7 7 8 8 9 9 8 8 10 10 15 16 8 10 15 11 9 11 13 11 8 9 11 9 5 3
26 21 23 16 1 5 16 14 15 27 27 16 10 11 17 21 20 16 11 8 8 8 10 8 8 10 9 9 8 6 6 5 4 2 1 4 4 1 0 0 1 2 2 4 4 4 4 2 2 3 6 6 6 6 5 4 4 5 7 8 8 8 8 8 8 9 10 10 9 11 12 12 18 17 10 12 12 7 10 13 11 8 8 10 9 6 5 4
26 15 8 6 4 11 12 8 24 39 26 10 9 9 10 12 11 9 5 5 6 7 9 7 5 5 4 5 5 6 7 6 6 5 4 6 3 1 1 2 2 2 4 4 3 4 3 1 2 5 6 6 6 6 5 5 7 8 9 9 9 9 8 8 10 11 11 9 9 10 12 16 19 14 10 13 11 7 11 9 7 8 8 8 4 3 4 4
18 5 -0 17 23 16 10 6 18 29 16 5 7 8 9 8 6 8 5 3 5 4 3 5 5 5 6 5 5 5 5 5 6 5 5 5 2 1 2 2 4 4 4 5 4 6 3 1 4 5 6 7 6 7 8 9 9 9 9 8 8 10 9 9 10 9 9 9 10 12 14 18 19 14 11 12 10 10 10 7 7 9 6 4 3 3 4 4
13 5 7 33 32 13 10 9 10 17 13 6 4 2 6 6 4 8 7 4 5 3 1 3 4 5 7 6 6 7 6 6 6 4 3 2 0 1 2 4 5 4 5 6 5 4 2 2 5 6 7 8 8 9 9 9 9 9 9 8 9 11 10 11 12 11 11 11 12 14 17 19 17 12 10 9 9 9 7 6 7 7 5 4 4 3 4 4
11 7 6 23 23 8 6 5 4 10 11 10 10 5 4 3 2 4 4 4 6 5 6 5 4 5 7 7 7 7 6 6 6 5 4 4 3 4 5 5 5 5 6 6 5 3 3 4 6 8 9 10 10 10 9 10 9 8 9 8 10 11 10 10 11 13 14 13 13 15 16 15 12 10 9 7 7 6 4 5 6 5 7 7 4 4 4 4
9 8 4 9 11 7 7 6 5 8 11 14 17 15 12 11 9 7 6 7 5 5 7 7 7 7 7 7 7 7 8 7 8 8 7 8 7 6 7 6 5 7 6 5 5 5 6 7 8 10 12 11 10 10 10 10 8 9 11 11 12 12 11 13 14 15 15 14 14 14 12 10 10 10 9 7 8 6 4 5 6 8 8 6 4 4 6 6
7 8 9 9 8 6 6 8 7 6 6 6 7 9 10 10 12 10 9 9 6 5 7 7 8 7 5 6 6 8 9 8 9 10 8 9 8 6 7 7 7 7 6 6 6 7 9 9 10 12 12 10 9 9 8 9 10 11 13 14 14 15 15 14 14 15 14 12 11 10 9 9 9 9 9 8 6 3 4 6 7 8 5 2 4 5 6 7
12 10 11 10 9 7 5 5 6 4 2 2 3 5 6 7 8 7 7 8 7 7 8 8 8 7 6 7 7 8 9 8 9 8 7 8 7 7 7 7 8 7 7 8 9 11 11 10 10 10 9 8 8 9 9 10 12 14 15 17 17 16 16 13 12 13 11 9 8 7 7 8 7 8 9 7 3 2 4 7 6 5 3 3 6 7 8 9
17 15 12 6 4 7 6 7 8 7 6 6 7 8 8 8 7 7 8 9 9 8 9 10 9 8 8 9 7 8 9 8 8 7 7 7 7 7 8 8 9 9 10 11 11 11 10 9 10 9 8 9 11 13 13 14 15 15 16 16 14 12 11 10 10 11 8 7 7 6 7 7 6 8 7 2 1 3 5 7 7 6 6 8 10 10 8 7
10 8 7 4 3 6 6 7 9 9 9 9 9 8 7 7 7 8 9 9 9 9 9 9 9 8 8 9 9 8 8 8 8 7 7 8 7 9 9 10 11 11 11 11 9 9 8 8 10 11 11 13 14 15 15 17 18 16 13 11 9 8 8 8 9 9 7 7 7 6 6 7 6 5 5 1 1 4 7 9 8 6 9 10 9 7 4 3
-2 -1 3 4 4 5 6 7 9 10 10 11 11 9 9 8 8 9 10 10 9 9 9 8 9 9 8 8 8 7 7 8 8 8 9 10 10 11 11 10 10 9 9 8 8 9 9 10 12 14 16 17 16 16 14 14 13 11 10 8 7 8 9 9 8 8 7 7 7 5 3 7 7 4 3 2 2 6 9 9 7 7 9 7 4 3 2 3
-3 -1 2 5 5 5 7 9 10 11 11 10 9 8 9 9 9 10 10 10 9 9 9 8 8 8 7 7 8 8 8 9 10 11 11 11 11 10 10 9 8 8 8 8 9 10 11 13 15 15 16 14 13 12 11 11 9 8 9 7 7 10 11 9 7 6 6 6 8 4 1 6 5 4 6 4 3 8 9 8 6 6 6 3 2 2 0 2
-1 1 1 3 5 5 7 9 10 10 9 9 9 9 9 10 10 10 9 9 9 8 8 7 7 7 7 8 9 9 10 10 11 11 9 10 9 8 8 8 8 8 8 9 11 12 13 15 14 12 11 9 8 7 8 8 8 8 8 8 9 11 10 8 7 5 4 7 8 3 3 7 4 6 10 5 5 11 9 6 4 4 4 2 1 1 1 4
1 3 2 3 4 5 8 10 9 8 8 10 10 9 9 9 8 8 8 7 7 7 7 7 7 8 9 10 10 10 11 10 9 8 7 7 7 7 7 7 7 8 9 12 12 12 14 13 12 10 9 9 9 9 10 9 10 10 10 10 10 9 8 6 6 5 3 6 7 2 5 10 9 10 10 5 7 9 4 3 4 3 4 1 0 3 4 4
2 2 3 3 3 6 10 10 9 8 9 9 8 7 7 7 6 6 6 6 7 7 8 8 9 10 11 11 11 11 10 8 7 6 7 6 5 6 7 6 8 9 11 13 13 13 12 9 8 8 8 10 10 9 10 11 11 11 10 10 9 7 7 6 7 7 3 3 7 7 7 10 9 7 4 4 6 5 2 2 3 2 3 3 3 4 2 2
4 2 3 3 5 9 11 9 9 9 8 7 7 6 6 5 6 7 7 8 9 9 9 10 12 12 11 10 9 7 7 6 6 6 6 6 6 6 6 6 9 11 12 13 13 13 10 5 5 7 7 9 9 9 10 11 11 10 7 7 7 6 7 9 9 7 3 3 10 13 9 8 7 2 1 4 4 2 3 3 3 3 3 3 3 2 4 6
4 3 4 6 9 10 8 7 8 7 6 7 6 6 7 7 8 8 9 10 10 11 11 10 9 8 7 6 6 6 5 4 6 7 6 6 6 5 5 7 10 12 13 14 13 11 9 7 7 7 7 9 10 10 10 10 9 7 6 6 6 6 9 10 9 6 5 7 11 10 6 6 7 3 2 5 3 2 4 3 4 5 3 3 4 4 7 9
4 3 6 9 10 7 5 6 7 6 6 6 6 7 8 8 10 11 11 11 11 10 8 6 7 6 5 5 5 5 5 5 8 7 5 5 5 5 7 9 12 13 14 14 13 12 11 10 8 8 10 12 11 10 9 8 6 5 6 6 6 8 8 8 7 6 7 8 8 6 4 4 5 4 3 5 3 4 5 3 4 5 3 3 5 7 11 12
6 7 8 8 7 6 6 6 6 7 8 8 9 10 10 11 12 12 10 9 7 6 5 5 6 5 4 5 5 4 6 8 7 5 4 4 5 6 9 12 13 14 14 13 13 12 11 9 9 10 13 13 10 8 7 6 5 5 7 8 7 7 7 8 10 10 9 9 7 6 5 4 3 3 4 5 4 4 3 3 5 6 4 6 9 14 15 15
10 9 8 7 6 6 7 7 8 9 9 10 11 11 12 11 10 7 6 5 4 5 5 5 4 5 6 5 4 5 8 8 6 4 4 4 6 9 13 14 14 14 13 12 11 10 10 10 10 11 11 11 8 6 6 6 6 8 8 9 8 8 10 11 12 9 6 5 4 3 4 3 2 3 5 4 3 3 2 4 7 8 8 12 14 16 17 24
8 6 5 6 6 7 9 9 10 11 11 12 11 10 9 7 4 3 4 4 4 4 4 4 5 7 7 5 6 9 9 6 5 4 4 6 10 13 14 14 14 13 12 11 11 10 10 10 10 9 8 8 6 5 6 6 7 9 10 11 10 10 11 11 8 6 4 3 4 4 3 3 3 3 3 1 2 4 4 8 13 12 12 15 16 21 31 37
6 5 6 8 8 10 11 10 12 12 11 9 8 7 6 2 1 3 3 4 4 4 4 5 7 8 7 7 9 8 6 4 5 5 8 11 14 15 15 14 13 12 11 11 11 10 10 8 7 6 5 5 6 6 7 8 9 11 10 11 11 11 10 8 5 3 2 3 6 5 3 4 4 3 2 1 3 5 7 14 17 14 15 21 28 34 34 26
Height
5827 5827 5828 5829 5830 5831 5831 5832 5832 5833 5833 5834 5834 5835 5835 5835 5835 5835 5836 5836 5836 5836 5836 5836 5836 5836 5835 5835 5835 5836 5836 5836 5837 5837 5837 5837 5837 5837 5837 5837 5837 5837 5837 5837 5836 5836 5836 5835 5835 5834 5834 5833 5833 5832 5831 5831 5830 5829 5828 5827 5827 5826 5825 5825 5824 5823 5822 5821 5820 5819 5818 5817 5816 5815 5813 5812 5810 5809 5807 5806 5805 5804 5800 5798 5797 5795 5793 5791
5826 5827 5828 5829 5829 5830 5831 5831 5832 5832 5833 5833 5834 5834 5834 5835 5835 5835 5835 5836 5836 5836 5836 5836 5836 5836 5835 5835 5835 5835 5836 5836 5837 5837 5837 5837 5837 5837 5837 5837 5837 5837 5836 5836 5836 5836 5835 5835 5834 5834 5833 5832 5832 5831 5830 5829 5828 5828 5827 5826 5825 5824 5823 5823 5822 5821 5820 5819 5818 5817 5816 5815 5814 5813 5811 5810 5808 5807 5804 5804 5803 5800 5797 5796 5794 5792 5790 5788
5825 5826 5827 5828 5828 5829 5830 5831 5831 5832 5832 5833 5833 5833 5834 5834 5834 5834 5835 5835 5835 5835 5835 5835 5835 5835 5835 5835 5835 5835 5835 5836 5836 5836 5837 5837 5837 5837 5837 5837 5837 5836 5836 5836 5835 5835 5835 5834 5833 5833 5832 5831 5830 5829 5829 5828 5827 5826 5825 5824 5823 5822 5822 5821 5820 5819 5818 5817 5816 5815 5814 5813 5812 5811 5809 5807 5806 5804 5802 5801 5800 5797 5794 5792 5791 5789 5786 5784
5825 5825 5826 5827 5827 5828 5829 5830 5831 5831 5832 5832 5833 5833 5833 5834 5834 5834 5834 5834 5834 5834 5835 5835 5835 5835 5835 5835 5835 5835 5835 5835 5836 5836 5836 5836 5836 5836 5836 5836 5836 5836 5836 5835 5835 5834 5834 5833 5832 5831 5831 5830 5829 5828 5827 5826 5825 5824 5823 5822 5822 5821 5820 5819 5818 5817 5816 5815 5814 5813 5812 5811 5810 5808 5806 5805 5803 5801 5800 5799 5796 5794 5792 5789 5787 5785 5782 5780
5824 5825 5825 5826 5827 5827 5828 5829 5830 5830 5831 5831 5832 5832 5833 5833 5833 5833 5834 5834 5834 5834 5834 5834 5834 5835 5835 5835 5835 5835 5835 5835 5835 5835 5835 5836 5836 5836 5836 5836 5836 5835 5835 5834 5834 5833 5833 5832 5831 5830 5829 5828 5827 5826 5825 5824 5823 5822 5822 5821 5820 5819 5818 5818 5817 5816 5815 5813 5812 5811 5810 5809 5807 5806 5803 5802 5800 5798 5797 5795 5793 5791 5788 5785 5783 5781 5778 5776
5823 5824 5824 5825 5825 5826 5827 5828 5828 5829 5830 5830 5831 5831 5832 5832 5833 5833 5833 5833 5833 5833 5833 5834 5834 5834 5834 5834 5834 5834 5834 5834 5834 5835 5835 5835 5835 5835 5835 5835 5835 5834 5834 5834 5833 5832 5832 5831 5830 5829 5828 5827 5826 5825 5824 5823 5822 5821 5820 5819 5818 5818 5817 5816 5815 5814 5813 5812 5810 5809 5808 5806 5804 5803 5800 5799 5797 5796 5794 5792 5790 5787 5785 5782 5779 5776 5774 5772
5822 5823 5823 5824 5824 5825 5826 5826 5827 5828 5828 5829 5830 5830 5830 5831 5831 5832 5832 5832 5832 5832 5833 5833 5833 5833 5833 5834 5834 5834 5834 5834 5834 5834 5834 5834 5834 5834 5834 5834 5834 5833 5833 5833 5832 5831 5831 5830 5829 5828 5827 5826 5825 5823 5822 5821 5820 5819 5819 5818 5817 5816 5815 5815 5813 5812 5811 5809 5808 5807 5805 5804 5801 5799 5798 5796 5794 5793 5790 5788 5786 5783 5780 5778 5775 5773 5771 5768
5821 5822 5822 5823 5823 5824 5824 5825 5826 5826 5827 5828 5828 5829 5829 5830 5830 5831 5831 5831 5831 5831 5832 5832 5832 5832 5832 5833 5833 5833 5833 5833 5834 5834 5834 5834 5834 5834 5833 5833 5833 5833 5832 5832 5831 5830 5830 5829 5828 5827 5825 5824 5823 5822 5821 5820 5819 5818 5817 5817 5816 5815 5814 5813 5811 5810 5809 5807 5805 5804 5802 5800 5798 5796 5795 5793 5791 5789 5787 5784 5782 5779 5776 5774 5771 5769 5767 5764
5820 5821 5821 5821 5822 5822 5823 5824 5824 5825 5826 5826 5827 5827 5828 5828 5829 5829 5830 5830 5830 5830 5830 5831 5831 5831 5831 5832 5832 5832 5832 5833 5833 5833 5833 5833 5833 5833 5833 5833 5832 5832 5831 5831 5830 5829 5829 5827 5826 5825 5824 5822 5821 5820 5819 5818 5818 5817 5816 5815 5814 5813 5812 5811 5809 5808 5806 5804 5803 5801 5799 5797 5795 5793 5791 5789 5787 5785 5783 5780 5778 5775 5772 5770 5768 5765 5763 5760
5819 5820 5820 5820 5820 5821 5821 5822 5823 5823 5824 5825 5825 5825 5826 5826 5827 5827 5827 5828 5828 5829 5829 5829 5829 5830 5830 5831 5832 5832 5832 5832 5832 5832 5832 5832 5832 5832 5832 5832 5831 5831 5830 5830 5829 5828 5827 5826 5825 5823 5822 5821 5820 5819 5818 5817 5816 5816 5815 5813 5812 5811 5810 5808 5807 5805 5804 5802 5800 5798 5796 5794 5792 5790 5788 5786 5784 5781 5779 5776 5774 5771 5769 5766 5764 5761 5758 5755
5818 5819 5819 5819 5819 5819 5819 5820 5820 5821 5822 5822 5823 5824 5824 5824 5825 5825 5825 5826 5826 5827 5827 5828 5828 5829 5829 5830 5831 5831 5831 5831 5831 5831 5831 5831 5831 5831 5831 5831 5830 5830 5829 5829 5828 5827 5826 5824 5823 5822 5821 5820 5819 5818 5817 5816 5815 5814 5813 5811 5810 5809 5807 5806 5805 5803 5801 5799 5797 5796 5793 5791 5789 5786 5784 5782 5780 5778 5775 5772 5770 5768 5765 5762 5760 5757 5754 5751
5817 5817 5818 5818 5818 5818 5817 5817 5818 5818 5819 5820 5821 5822 5822 5822 5823 5823 5823 5824 5824 5825 5826 5826 5827 5827 5828 5829 5830 5830 5830 5830 5830 5830 5830 5830 5830 5830 5830 5830 5829 5828 5828 5827 5827 5825 5824 5823 5822 5821 5820 5819 5818 5817 5816 5815 5814 5812 5811 5810 5808 5807 5805 5804 5802 5800 5798 5796 5794 5793 5791 5788 5786 5784 5780 5778 5777 5774 5771 5769 5766 5764 5761 5758 5755 5752 5749 5746
5816 5816 5816 5816 5816 5816 5816 5815 5815 5816 5817 5818 5819 5819 5820 5820 5820 5820 5821 5822 5823 5823 5824 5824 5825 5826 5827 5828 5828 5829 5829 5829 5829 5829 5829 5829 5829 5829 5829 5828 5828 5827 5826 5826 5825 5824 5823 5822 5821 5820 5819 5818 5817 5816 5814 5813 5812 5811 5809 5808 5806 5805 5803 5801 5799 5798 5795 5793 5791 5789 5787 5784 5782 5781 5778 5775 5773 5770 5767 5764 5762 5760 5757 5754 5751 5748 5745 5742
5815 5815 5815 5815 5815 5814 5813 5813 5814 5814 5815 5816 5817 5817 5818 5818 5818 5819 5819 5820 5821 5821 5821 5822 5823 5824 5826 5827 5827 5828 5828 5828 5828 5828 5828 5828 5828 5828 5827 5827 5826 5826 5825 5824 5824 5822 5822 5821 5820 5819 5818 5816 5815 5814 5813 5811 5810 5809 5807 5806 5804 5802 5801 5799 5796 5794 5792 5790 5788 5786 5784 5781 5778 5776 5774 5771 5769 5766 5762 5760 5757 5755 5752 5749 5746 5743 5740 5737
5814 5814 5814 5813 5813 5812 5812 5812 5812 5813 5813 5814 5815 5815 5816 5816 5816 5817 5817 5818 5818 5819 5819 5820 5821 5823 5824 5825 5826 5827 5827 5827 5826 5826 5826 5826 5826 5826 5826 5825 5825 5824 5824 5823 5822 5821 5820 5819 5818 5817 5816 5815 5814 5812 5811 5810 5808 5807 5805 5803 5802 5800 5797 5796 5794 5791 5789 5786 5784 5782 5780 5777 5774 5771 5769 5767 5764 5761 5758 5755 5753 5750 5747 5745 5742 5738 5735 5732
5813 5812 5812 5812 5812 5811 5811 5811 5811 5812 5812 5813 5813 5814 5814 5814 5815 5815 5816 5816 5816 5817 5818 5819 5820 5822 5823 5824 5825 5825 5826 5825 5825 5825 5825 5825 5825 5824 5824 5824 5823 5823 5822 5821 5821 5820 5819 5818 5817 5815 5814 5813 5812 5810 5809 5807 5806 5805 5803 5801 5799 5797 5794 5793 5791 5788 5785 5783 5780 5778 5776 5773 5770 5767 5765 5763 5760 5757 5754 5750 5748 5746 5743 5740 5737 5733 5730 5726
5812 5811 5811 5811 5810 5810 5809 5810 5810 5810 5811 5811 5812 5812 5813 5813 5814 5814 5814 5814 5815 5816 5816 5818 5819 5820 5822 5823 5824 5824 5824 5824 5824 5824 5824 5823 5823 5823 5823 5822 5822 5821 5821 5820 5819 5818 5817 5816 5815 5814 5812 5811 5809 5808 5807 5805 5803 5802 5800 5798 5796 5794 5792 5789 5787 5784 5782 5779 5776 5774 5772 5769 5766 5763 5761 5758 5755 5753 5750 5746 5743 5741 5739 5736 5732 5729 5725 5722
5810 5810 5809 5809 5809 5808 5808 5808 5808 5809 5810 5810 5810 5811 5811 5812 5812 5813 5813 5813 5814 5815 5816 5817 5818 5819 5821 5821 5822 5822 5822 5822 5822 5822 5822 5822 5822 5822 5821 5821 5820 5820 5819 5818 5817 5816 5815 5814 5813 5811 5810 5809 5807 5806 5804 5802 5801 5799 5797 5795 5793 5791 5788 5785 5783 5781 5778 5775 5772 5769 5767 5765 5762 5759 5757 5754 5751 5748 5745 5741 5739 5737 5734 5731 5727 5723 5720 5717
5808 5808 5808 5807 5807 5807 5807 5807 5807 5807 5808 5808 5809 5810 5810 5811 5811 5812 5812 5813 5814 5815 5816 5817 5818 5819 5819 5820 5820 5821 5821 5821 5821 5821 5821 5820 5820 5820 5820 5819 5819 5818 5817 5816 5815 5814 5813 5812 5810 5809 5808 5807 5805 5803 5802 5800 5798 5796 5794 5792 5789 5787 5785 5782 5779 5776 5773 5771 5768 5765 5763 5761 5758 5755 5752 5749 5746 5743 5739 5736 5734 5732 5729 5725 5722 5718 5715 5712
5806 5806 5806 5805 5805 5805 5805 5805 5805 5805 5806 5807 5807 5808 5809 5809 5810 5811 5811 5812 5813 5814 5815 5816 5817 5817 5818 5819 5819 5819 5819 5819 5819 5819 5819 5819 5819 5818 5818 5818 5817 5816 5815 5814 5813 5812 5811 5810 5808 5807 5806 5804 5803 5801 5799 5797 5795 5793 5790 5788 5786 5783 5781 5778 5775 5773 5769 5766 5764 5761 5758 5757 5754 5751 5748 5744 5741 5738 5734 5732 5730 5727 5724 5720 5717 5713 5710 5707
5804 5804 5804 5803 5803 5803 5803 5803 5803 5803 5804 5805 5806 5807 5808 5808 5809 5810 5811 5812 5813 5814 5814 5815 5816 5816 5817 5817 5818 5818 5818 5818 5818 5818 5817 5817 5817 5817 5816 5816 5815 5814 5813 5812 5811 5810 5809 5808 5806 5805 5803 5802 5800 5798 5796 5794 5792 5790 5787 5785 5782 5780 5777 5774 5772 5769 5766 5763 5760 5757 5754 5752 5750 5747 5743 5740 5736 5732 5729 5727 5725 5722 5718 5715 5712 5709 5705 5702
5802 5802 5802 5801 5801 5801 5801 5801 5801 5802 5803 5804 5804 5805 5806 5807 5808 5809 5810 5811 5812 5813 5814 5814 5815 5815 5816 5816 5816 5816 5816 5816 5816 5816 5816 5816 5815 5815 5814 5814 5813 5812 5811 5810 5809 5808 5807 5805 5804 5802 5801 5799 5797 5795 5793 5791 5789 5786 5784 5781 5778 5776 5773 5770 5768 5765 5762 5759 5756 5753 5749 5746 5745 5742 5739 5735 5731 5727 5724 5722 5719 5716 5712 5709 5707 5704 5701 5698
5801 5800 5799 5799 5799 5798 5798 5799 5799 5800 5801 5802 5803 5804 5805 5806 5807 5808 5809 5810 5811 5812 5813 5813 5814 5814 5815 5815 5815 5815 5815 5815 5815 5815 5814 5814 5814 5813 5812 5812 5811 5810 5809 5808 5807 5806 5804 5803 5801 5800 5798 5796 5794 5792 5790 5788 5786 5783 5780 5777 5774 5772 5769 5766 5764 5761 5758 5755 5752 5748 5745 5740 5738 5738 5735 5731 5727 5722 5719 5717 5713 5710 5707 5705 5702 5699 5696 5694
5799 5798 5797 5796 5796 5796 5796 5796 5797 5798 5799 5801 5802 5803 5804 5805 5806 5807 5808 5809 5810 5811 5812 5812 5813 5813 5813 5814 5814 5814 5814 5813 5813 5813 5813 5813 5812 5811 5811 5810 5809 5808 5807 5806 5805 5804 5802 5800 5799 5797 5795 5793 5791 5789 5786 5784 5782 5780 5777 5774 5770 5768 5765 5762 5759 5757 5753 5750 5747 5744 5740 5735 5732 5731 5730 5726 5722 5718 5715 5711 5707 5704 5702 5700 5697 5694 5691 5689
5796 5795 5794 5794 5794 5793 5793 5794 5795 5797 5798 5799 5800 5801 5802 5803 5804 5805 5807 5808 5809 5810 5810 5811 5811 5812 5812 5812 5812 5813 5813 5812 5812 5812 5811 5811 5810 5810 5809 5808 5807 5806 5805 5804 5803 5802 5800 5798 5796 5794 5793 5791 5788 5786 5783 5780 5778 5775 5773 5770 5767 5764 5761 5758 5755 5752 5749 5745 5743 5739 5735 5731 5726 5725 5725 5722 5717 5713 5710 5706 5701 5699 5698 5695 5692 5688 5686 5684
5794 5793 5792 5791 5791 5791 5791 5792 5793 5795 5797 5797 5799 5800 5801 5802 5803 5804 5805 5806 5808 5808 5809 5810 5810 5811 5811 5811 5811 5811 5811 5811 5811 5810 5810 5809 5809 5808 5807 5806 5805 5804 5803 5801 5800 5799 5797 5795 5793 5791 5790 5788 5785 5783 5780 5777 5774 5771 5769 5766 5763 5760 5757 5754 5751 5748 5745 5741 5739 5735 5731 5728 5724 5720 5720 5717 5712 5709 5705 5700 5697 5695 5692 5689 5686 5683 5680 5678
5792 5790 5789 5789 5788 5788 5789 5790 5792 5793 5795 5796 5797 5798 5799 5801 5801 5802 5804 5805 5806 5807 5808 5809 5809 5809 5810 5810 5810 5810 5810 5810 5809 5809 5808 5808 5807 5806 5805 5804 5803 5802 5801 5799 5797 5797 5795 5792 5790 5788 5786 5784 5782 5779 5776 5774 5770 5767 5765 5762 5759 5756 5753 5750 5747 5743 5741 5737 5735 5732 5727 5724 5720 5716 5715 5712 5706 5703 5699 5695 5692 5690 5687 5684 5681 5678 5675 5673
5789 5788 5787 5787 5787 5787 5788 5789 5790 5792 5793 5795 5795 5796 5798 5799 5800 5801 5802 5804 5804 5805 5807 5808 5808 5808 5809 5809 5809 5809 5808 5808 5808 5808 5807 5806 5805 5804 5803 5802 5801 5800 5799 5796 5795 5794 5792 5790 5788 5786 5783 5781 5778 5775 5773 5770 5766 5764 5761 5758 5755 5752 5749 5746 5742 5739 5736 5732 5729 5727 5723 5720 5716 5711 5708 5706 5701 5696 5693 5690 5688 5685 5682 5679 5676 5673 5670 5667
5788 5787 5787 5786 5787 5787 5787 5788 5789 5791 5793 5794 5794 5795 5797 5798 5799 5799 5801 5803 5804 5804 5806 5807 5807 5807 5808 5808 5808 5807 5807 5806 5806 5806 5805 5804 5804 5802 5801 5800 5799 5798 5796 5794 5792 5791 5789 5787 5785 5782 5780 5777 5775 5772 5769 5766 5762 5760 5757 5754 5751 5748 5745 5741 5737 5734 5731 5728 5724 5721 5718 5715 5714 5709 5703 5700 5696 5691 5687 5686 5684 5680 5677 5674 5672 5668 5665 5661
5788 5787 5787 5787 5787 5788 5788 5788 5789 5791 5792 5793 5793 5795 5796 5797 5798 5799 5800 5802 5803 5804 5805 5805 5806 5806 5807 5807 5806 5806 5805 5805 5805 5804 5803 5802 5802 5800 5799 5798 5796 5795 5793 5791 5790 5787 5786 5784 5781 5779 5776 5773 5771 5768 5765 5761 5758 5756 5752 5750 5747 5744 5741 5737 5733 5730 5725 5722 5718 5716 5713 5710 5708 5704 5699 5696 5691 5686 5684 5683 5680 5676 5673 5670 5668 5664 5660 5656
5789 5788 5788 5788 5788 5788 5789 5789 5789 5790 5791 5792 5793 5794 5795 5796 5797 5799 5800 5801 5802 5803 5804 5805 5805 5805 5805 5805 5805 5804 5804 5803 5803 5802 5801 5801 5800 5798 5797 5795 5793 5792 5790 5788 5787 5785 5783 5781 5778 5775 5772 5770 5767 5764 5761 5757 5754 5751 5747 5744 5741 5738 5735 5731 5728 5724 5720 5715 5712 5710 5708 5706 5704 5698 5694 5692 5687 5682 5681 5679 5676 5673 5669 5666 5663 5659 5655 5652
5790 5789 5789 5789 5789 5789 5789 5789 5789 5789 5790 5791 5793 5794 5796 5797 5798 5799 5800 5801 5802 5803 5804 5804 5804 5804 5804 5803 5803 5803 5802 5802 5801 5800 5799 5798 5797 5796 5794 5792 5790 5788 5786 5785 5784 5782 5780 5778 5775 5772 5769 5766 5763 5760 5757 5754 5750 5747 5743 5739 5736 5732 5729 5726 5722 5719 5715 5710 5706 5705 5704 5702 5700 5694 5687 5686 5683 5679 5677 5674 5672 5669 5666 5663 5659 5655 5651 5647
5791 5790 5790 5790 5789 5789 5790 5790 5790 5790 5790 5792 5793 5795 5796 5797 5798 5799 5800 5801 5802 5802 5803 5803 5803 5802 5802 5802 5801 5801 5800 5800 5799 5798 5797 5796 5795 5793 5791 5789 5787 5785 5783 5781 5779 5777 5775 5773 5771 5768 5765 5762 5759 5755 5752 5748 5746 5743 5739 5734 5730 5727 5723 5721 5718 5714 5711 5706 5701 5701 5700 5697 5695 5690 5684 5681 5678 5675 5673 5670 5668 5666 5662 5659 5654 5650 5646 5642
5791 5791 5791 5791 5790 5790 5791 5791 5791 5792 5792 5793 5794 5795 5797 5798 5799 5799 5800 5801 5801 5801 5801 5801 5801 5801 5800 5800 5800 5799 5798 5798 5797 5796 5795 5793 5792 5790 5789 5787 5785 5783 5780 5778 5776 5773 5771 5768 5766 5763 5760 5757 5754 5751 5747 5743 5740 5737 5734 5729 5726 5723 5718 5715 5713 5709 5706 5702 5696 5695 5696 5693 5689 5684 5680 5676 5673 5671 5668 5665 5663 5661 5657 5652 5647 5643 5640 5636
5792 5792 5792 5792 5792 5792 5792 5793 5793 5793 5794 5795 5795 5796 5797 5798 5798 5799 5800 5800 5800 5800 5800 5800 5800 5800 5799 5798 5798 5797 5796 5796 5795 5794 5792 5791 5789 5788 5786 5784 5782 5780 5778 5775 5772 5770 5767 5764 5762 5759 5756 5753 5749 5746 5743 5738 5735 5732 5729 5725 5721 5718 5714 5710 5708 5704 5701 5697 5693 5692 5692 5690 5685 5680 5676 5673 5669 5666 5663 5660 5659 5656 5652 5647 5642 5638 5634 5629
5793 5793 5793 5793 5794 5794 5794 5794 5794 5795 5795 5795 5796 5797 5797 5798 5798 5799 5799 5799 5799 5799 5799 5799 5799 5798 5797 5797 5796 5795 5794 5793 5792 5791 5790 5788 5786 5785 5783 5781 5779 5777 5774 5772 5769 5766 5763 5760 5758 5754 5751 5748 5745 5741 5738 5734 5730 5727 5724 5720 5716 5713 5709 5706 5703 5700 5696 5691 5688 5688 5687 5686 5682 5675 5671 5668 5665 5662 5659 5656 5654 5651 5647 5642 5637 5633 5628 5624
5794 5795 5795 5795 5795 5795 5795 5795 5795 5796 5796 5796 5797 5797 5798 5798 5798 5799 5799 5799 5799 5798 5798 5797 5797 5797 5796 5795 5794 5793 5792 5791 5790 5788 5787 5786 5784 5782 5780 5778 5776 5773 5771 5768 5765 5762 5759 5756 5754 5751 5747 5744 5740 5737 5734 5730 5726 5722 5719 5715 5711 5708 5705 5701 5698 5696 5691 5686 5683 5682 5681 5680 5678 5672 5666 5663 5660 5657 5654 5652 5650 5646 5642 5637 5632 5628 5623 5619
5795 5795 5796 5796 5796 5796 5796 5796 5797 5797 5797 5797 5797 5797 5797 5798 5798 5798 5798 5798 5797 5797 5796 5796 5796 5795 5794 5793 5792 5791 5789 5788 5787 5786 5784 5783 5781 5779 5777 5775 5772 5770 5767 5764 5761 5757 5754 5751 5750 5747 5743 5739 5736 5732 5728 5726 5722 5718 5714 5711 5707 5704 5701 5696 5693 5691 5686 5681 5678 5676 5675 5674 5673 5669 5663 5658 5654 5652 5649 5647 5644 5639 5634 5629 5625 5621 5616 5612
5796 5796 5797 5797 5797 5797 5797 5797 5797 5797 5797 5797 5797 5797 5797 5797 5797 5797 5797 5796 5796 5796 5795 5794 5794 5793 5792 5791 5790 5789 5788 5786 5785 5783 5781 5780 5778 5776 5774 5771 5769 5766 5763 5759 5756 5753 5750 5746 5744 5742 5738 5734 5731 5727 5723 5720 5718 5714 5710 5707 5704 5701 5697 5693 5689 5687 5682 5677 5673 5670 5668 5667 5664 5662 5658 5652 5648 5646 5643 5641 5637 5631 5626 5621 5617 5612 5607 5603
5797 5797 5798 5798 5798 5798 5798 5798 5798 5797 5797 5797 5797 5797 5797 5797 5797 5796 5796 5795 5795 5794 5794 5793 5792 5791 5790 5789 5788 5787 5786 5784 5782 5780 5779 5777 5775 5772 5770 5767 5764 5762 5758 5755 5752 5749 5746 5742 5739 5737 5733 5729 5726 5723 5719 5715 5712 5710 5706 5703 5700 5697 5694 5690 5687 5685 5681 5675 5671 5666 5662 5661 5658 5655 5651 5646 5642 5640 5637 5634 5629 5623 5618 5614 5609 5604 5599 5595
5798 5798 5799 5799 5799 5798 5798 5798 5798 5797 5797 5797 5797 5797 5796 5796 5796 5795 5795 5794 5793 5793 5792 5791 5790 5789 5788 5787 5786 5784 5783 5781 5780 5778 5776 5773 5771 5769 5766 5763 5761 5758 5755 5751 5748 5744 5741 5738 5735 5732 5728 5725 5721 5718 5715 5712 5709 5706 5702 5699 5696 5693 5690 5685 5681 5679 5676 5673 5670 5664 5659 5659 5656 5651 5646 5641 5636 5634 5632 5628 5622 5617 5612 5608 5603 5597 5592 5587
5798 5799 5799 5799 5799 5799 5799 5798 5798 5797 5797 5797 5796 5796 5796 5795 5795 5794 5794 5793 5792 5791 5790 5789 5788 5787 5786 5785 5783 5782 5780 5779 5777 5775 5772 5770 5768 5765 5762 5760 5757 5754 5751 5747 5744 5740 5736 5733 5730 5727 5725 5722 5718 5714 5711 5709 5705 5702 5698 5695 5692 5689 5686 5682 5677 5673 5669 5667 5665 5660 5655 5653 5651 5646 5642 5636 5631 5629 5626 5620 5615 5611 5607 5601 5596 5590 5585 5580
5799 5799 5799 5799 5799 5799 5799 5798 5798 5797 5797 5796 5796 5795 5795 5794 5794 5793 5792 5791 5790 5789 5788 5787 5786 5785 5783 5782 5781 5779 5777 5776 5773 5771 5769 5767 5764 5762 5759 5756 5753 5750 5747 5743 5740 5736 5732 5729 5726 5723 5721 5718 5715 5711 5709 5706 5703 5699 5695 5692 5689 5686 5683 5679 5674 5670 5665 5662 5660 5655 5651 5647 5642 5639 5636 5629 5625 5623 5619 5613 5609 5605 5601 5595 5588 5583 5578 5572
5799 5799 5799 5800 5799 5799 5799 5798 5797 5797 5796 5795 5795 5794 5794 5793 5793 5792 5791 5790 5789 5787 5786 5785 5784 5783 5781 5780 5778 5776 5774 5772 5770 5768 5766 5764 5761 5758 5755 5752 5749 5746 5743 5739 5736 5732 5728 5725 5721 5719 5716 5713 5709 5706 5704 5702 5698 5695 5692 5689 5685 5682 5679 5675 5671 5666 5662 5659 5655 5651 5649 5644 5637 5634 5631 5626 5622 5619 5614 5609 5604 5599 5593 5587 5581 5575 5569 5562
5799 5799 5800 5799 5799 5799 5798 5797 5797 5796 5795 5795 5794 5793 5793 5792 5791 5790 5789 5788 5787 5786 5785 5783 5782 5780 5779 5777 5775 5773 5772 5770 5767 5765 5763 5760 5757 5754 5751 5748 5745 5742 5738 5735 5732 5729 5726 5722 5718 5714 5711 5708 5704 5700 5698 5696 5693 5690 5688 5685 5682 5679 5675 5671 5667 5662 5657 5653 5650 5646 5644 5642 5636 5629 5624 5621 5618 5614 5609 5603 5598 5592 5585 5578 5572 5566 5559 5551
5799 5799 5799 5799 5799 5798 5798 5797 5796 5795 5795 5794 5793 5792 5792 5791 5790 5789 5787 5786 5785 5784 5782 5781 5780 5778 5777 5775 5773 5771 5769 5767 5764 5762 5759 5756 5753 5751 5748 5744 5741 5738 5734 5731 5728 5725 5723 5720 5716 5712 5708 5704 5700 5696 5693 5691 5688 5685 5683 5680 5678 5674 5671 5667 5662 5658 5653 5648 5645 5641 5636 5634 5632 5625 5616 5612 5609 5604 5600 5595 5590 5584 5576 5569 5562 5556 5548 5541
5799 5799 5799 5799 5799 5798 5797 5796 5795 5795 5794 5793 5792 5791 5790 5789 5788 5787 5786 5784 5783 5782 5781 5779 5778 5776 5775 5773 5771 5769 5766 5764 5761 5758 5755 5753 5750 5747 5744 5741 5737 5734 5731 5728 5724 5721 5719 5717 5713 5710 5706 5701 5697 5693 5690 5687 5684 5681 5678 5675 5672 5669 5665 5662 5657 5653 5648 5643 5641 5637 5630 5625 5623 5618 5611 5606 5601 5597 5592 5587 5580 5574 5566 5559 5553 5546 5539 5530
5799 5799 5799 5799 5798 5797 5797 5796 5795 5794 5793 5792 5791 5790 5789 5788 5787 5786 5784 5783 5782 5780 5779 5778 5776 5774 5772 5770 5768 5766 5763 5761 5758 5755 5752 5749 5746 5743 5740 5737 5734 5731 5727 5724 5720 5717 5715 5713 5709 5707 5703 5698 5693 5690 5687 5683 5680 5677 5674 5671 5667 5664 5660 5656 5652 5648 5643 5638 5634 5631 5626 5619 5614 5609 5605 5600 5594 5590 5585 5578 5572 5565 5558 5551 5544 5536 5528 5521
5799 5799 5798 5798 5797 5797 5796 5795 5794 5793 5792 5791 5790 5789 5788 5787 5785 5784 5783 5782 5780 5779 5777 5776 5774 5772 5770 5767 5765 5763 5760 5757 5755 5752 5749 5746 5743 5740 5737 5733 5730 5727 5723 5720 5717 5713 5710 5708 5705 5702 5700 5696 5691 5687 5684 5680 5677 5673 5671 5667 5662 5659 5655 5651 5647 5642 5638 5633 5629 5625 5621 5615 5608 5602 5598 5593 5586 5581 5576 5570 5563 5555 5548 5541 5534 5526 5518 5511
5799 5798 5798 5797 5797 5796 5795 5794 5793 5792 5791 5790 5789 5788 5786 5785 5784 5783 5782 5780 5779 5777 5775 5773 5771 5769 5767 5764 5762 5759 5757 5754 5751 5749 5745 5742 5739 5736 5732 5729 5726 5723 5719 5716 5713 5709 5706 5704 5700 5697 5696 5693 5689 5685 5681 5678 5674 5670 5667 5663 5658 5654 5650 5646 5642 5638 5633 5629 5624 5619 5615 5611 5604 5597 5591 5583 5576 5571 5567 5562 5554 5546 5537 5528 5522 5516 5508 5501
5798 5798 5797 5797 5796 5795 5794 5793 5792 5791 5790 5789 5788 5786 5785 5784 5783 5781 5780 5778 5777 5775 5773 5771 5769 5766 5764 5761 5759 5756 5754 5751 5748 5745 5742 5738 5735 5731 5728 5725 5722 5719 5716 5712 5709 5706 5702 5699 5696 5693 5691 5689 5685 5681 5677 5673 5670 5667 5662 5658 5654 5649 5645 5642 5637 5632 5627 5623 5620 5615 5609 5603 5597 5591 5585 5577 5568 5561 5556 5551 5543 5534 5526 5518 5511 5505 5499 5493
5798 5797 5797 5796 5795 5794 5793 5792 5791 5790 5789 5788 5787 5785 5784 5783 5781 5780 5778 5776 5774 5772 5770 5768 5766 5763 5761 5758 5756 5753 5750 5747 5744 5741 5738 5734 5731 5727 5724 5721 5718 5715 5712 5709 5705 5702 5698 5695 5692 5689 5687 5684 5681 5676 5672 5668 5665 5662 5658 5653 5649 5644 5640 5636 5632 5628 5622 5617 5613 5608 5601 5594 5589 5583 5578 5573 5566 5556 5546 5537 5528 5520 5514 5509 5502 5496 5492 5487